When you browse on this site, cookies collect data to enhance your experience and personalize the content and advertising you see.
Visit our Privacy Policy to learn more. By continuing to use the site, you agree to this use of cookies and data.
  • In Hungary
  • List of Countries
  • For 7 days
  • Water Temperature
  • Weather Map
  • News
  • Weather Widgets
  • user-avatar
    Login

    Hourly Weather Bolshoe Agishevo

    Today, 20 January, Monday

    Time Temperature Precipitation Wind Pressure Humidity
    00:00 -5°C° 0 mm 3 mps 756 mmHg 95%
    01:00 -4°C° 0 mm 3 mps 756 mmHg 94%
    02:00 -4°C° 0 mm 4 mps 756 mmHg 93%
    03:00 -3°C° 0 mm 4 mps 756 mmHg 93%
    04:00 -3°C° 0 mm 4 mps 755 mmHg 93%
    05:00 -3°C° 0 mm 4 mps 755 mmHg 93%
    06:00 -3°C° 0 mm 4 mps 755 mmHg 93%
    07:00 -3°C° 0 mm 4 mps 755 mmHg 93%
    08:00 -3°C° 0 mm 4 mps 755 mmHg 93%
    09:00 -4°C° 0 mm 5 mps 755 mmHg 93%
    10:00 -4°C° 0 mm 5 mps 754 mmHg 92%
    11:00 -2°C° 0 mm 5 mps 754 mmHg 91%
    12:00 -2°C° 0 mm 5 mps 754 mmHg 90%
    13:00 -2°C° 0 mm 5 mps 754 mmHg 91%
    14:00 -2°C° 0 mm 5 mps 754 mmHg 91%
    15:00 -1°C° 0 mm 5 mps 754 mmHg 91%
    16:00 -2°C° 0 mm 5 mps 753 mmHg 93%
    17:00 -2°C° 0 mm 5 mps 753 mmHg 94%
    18:00 -2°C° 0 mm 5 mps 753 mmHg 96%
    19:00 -2°C° 0 mm 5 mps 752 mmHg 96%
    20:00 -2°C° 0 mm 5 mps 752 mmHg 96%
    21:00 -2°C° 0 mm 5 mps 752 mmHg 96%
    22:00 -2°C° 0.1 mm 5 mps 751 mmHg 96%
    23:00 -2°C° 0.1 mm 5 mps 751 mmHg 96%

    Tomorrow, 21 January, Tuesday

    Time Temperature Precipitation Wind Pressure Humidity
    00:00 -2°C° 0.1 mm 5 mps 751 mmHg 96%
    01:00 -2°C° 0.1 mm 5 mps 750 mmHg 96%
    02:00 -2°C° 0.1 mm 5 mps 750 mmHg 95%
    03:00 -2°C° 0.1 mm 5 mps 750 mmHg 94%
    04:00 -2°C° 0 mm 5 mps 749 mmHg 93%
    05:00 -2°C° 0 mm 5 mps 748 mmHg 92%
    06:00 -2°C° 0 mm 5 mps 748 mmHg 90%
    07:00 -4°C° 0.1 mm 5 mps 747 mmHg 92%
    08:00 -4°C° 0.1 mm 5 mps 747 mmHg 93%
    09:00 -4°C° 0.1 mm 5 mps 746 mmHg 95%
    10:00 -4°C° 0.4 mm 6 mps 746 mmHg 95%
    11:00 -4°C° 0.4 mm 6 mps 745 mmHg 95%
    12:00 -4°C° 0.4 mm 7 mps 744 mmHg 96%
    13:00 -3°C° 0.5 mm 7 mps 743 mmHg 96%
    14:00 -3°C° 0.5 mm 7 mps 743 mmHg 96%
    15:00 -3°C° 0.5 mm 7 mps 742 mmHg 97%
    16:00 -2°C° 0 mm 6 mps 741 mmHg 96%
    17:00 -2°C° 0 mm 6 mps 741 mmHg 96%
    18:00 -1°C° 0 mm 6 mps 740 mmHg 96%
    19:00 -1°C° 0 mm 6 mps 739 mmHg 96%
    20:00 -1°C° 0 mm 6 mps 739 mmHg 96%
    21:00 -1°C° 0 mm 6 mps 738 mmHg 97%
    22:00 -1°C° 1.2 mm 6 mps 737 mmHg 97%
    23:00 -1°C° 1.2 mm 6 mps 736 mmHg 97%

    Day after tomorrow, 22 January, Wednesday

    Time Temperature Precipitation Wind Pressure Humidity
    00:00 -1°C° 1.2 mm 6 mps 735 mmHg 98%
    01:00 -1°C° 0.5 mm 6 mps 735 mmHg 97%
    02:00 +1°C° 0.5 mm 6 mps 735 mmHg 96%
    03:00 0°C° 0.5 mm 7 mps 735 mmHg 96%
    04:00 -1°C° 0.3 mm 6 mps 735 mmHg 95%
    05:00 0°C° 0.3 mm 5 mps 735 mmHg 93%
    06:00 -1°C° 0.3 mm 5 mps 735 mmHg 92%
    07:00 -1°C° 0.1 mm 5 mps 735 mmHg 91%
    08:00 -2°C° 0.1 mm 5 mps 735 mmHg 90%
    09:00 -2°C° 0.1 mm 5 mps 735 mmHg 89%
    10:00 -2°C° 0.1 mm 5 mps 735 mmHg 86%
    11:00 -3°C° 0.1 mm 6 mps 735 mmHg 83%
    12:00 -3°C° 0.1 mm 6 mps 735 mmHg 79%
    13:00 -2°C° 0 mm 5 mps 735 mmHg 80%
    14:00 -2°C° 0 mm 5 mps 735 mmHg 80%
    15:00 -2°C° 0 mm 4 mps 734 mmHg 81%
    16:00 -3°C° 0 mm 4 mps 734 mmHg 82%
    17:00 -3°C° 0 mm 4 mps 734 mmHg 84%
    18:00 -4°C° 0 mm 4 mps 734 mmHg 86%
    19:00 -4°C° 0.1 mm 4 mps 734 mmHg 87%
    20:00 -5°C° 0.1 mm 5 mps 734 mmHg 88%
    21:00 -5°C° 0.1 mm 5 mps 734 mmHg 89%
    22:00 -4°C° 0 mm 4 mps 734 mmHg 89%
    23:00 -4°C° 0 mm 4 mps 734 mmHg 88%

    23 January, Thursday

    Time Temperature Precipitation Wind Pressure Humidity
    00:00 -5°C° 0 mm 4 mps 734 mmHg 88%
    01:00 -5°C° 0 mm 4 mps 734 mmHg 89%
    02:00 -5°C° 0 mm 4 mps 734 mmHg 89%
    03:00 -5°C° 0 mm 4 mps 734 mmHg 89%
    04:00 -5°C° 0 mm 4 mps 735 mmHg 89%
    05:00 -7°C° 0 mm 4 mps 735 mmHg 88%
    06:00 -7°C° 0 mm 5 mps 735 mmHg 87%
    07:00 -7°C° 0.1 mm 5 mps 735 mmHg 88%
    08:00 -7°C° 0.1 mm 5 mps 736 mmHg 88%
    09:00 -7°C° 0.1 mm 5 mps 736 mmHg 89%
    10:00 -7°C° 0.1 mm 5 mps 737 mmHg 83%
    11:00 -8°C° 0.1 mm 6 mps 737 mmHg 78%
    12:00 -8°C° 0.1 mm 6 mps 738 mmHg 73%
    13:00 -9°C° 0.1 mm 6 mps 738 mmHg 73%
    14:00 -9°C° 0.1 mm 6 mps 739 mmHg 73%
    15:00 -9°C° 0.1 mm 6 mps 739 mmHg 73%
    16:00 -10°C° 0.1 mm 5 mps 740 mmHg 73%
    17:00 -10°C° 0.1 mm 5 mps 741 mmHg 74%
    18:00 -11°C° 0.1 mm 5 mps 741 mmHg 74%
    19:00 -10°C° 0 mm 4 mps 742 mmHg 75%
    20:00 -10°C° 0 mm 4 mps 742 mmHg 75%
    21:00 -10°C° 0 mm 4 mps 743 mmHg 76%
    22:00 -10°C° 0 mm 4 mps 743 mmHg 77%
    23:00 -10°C° 0 mm 4 mps 744 mmHg 79%

    24 January, Friday

    Time Temperature Precipitation Wind Pressure Humidity
    00:00 -10°C° 0 mm 4 mps 744 mmHg 81%
    01:00 -11°C° 0 mm 4 mps 745 mmHg 82%
    02:00 -11°C° 0 mm 4 mps 745 mmHg 83%
    03:00 -11°C° 0 mm 4 mps 746 mmHg 84%
    04:00 -10°C° 0 mm 3 mps 746 mmHg 85%
    05:00 -10°C° 0 mm 3 mps 746 mmHg 86%
    06:00 -10°C° 0 mm 3 mps 745 mmHg 86%
    07:00 -10°C° 0 mm 3 mps 745 mmHg 86%
    08:00 -11°C° 0 mm 4 mps 745 mmHg 85%
    09:00 -11°C° 0 mm 4 mps 745 mmHg 85%
    10:00 -11°C° 0 mm 5 mps 744 mmHg 84%
    11:00 -10°C° 0 mm 5 mps 744 mmHg 84%
    12:00 -9°C° 0 mm 6 mps 743 mmHg 84%
    13:00 -9°C° 0.2 mm 6 mps 742 mmHg 87%
    14:00 -8°C° 0.2 mm 6 mps 741 mmHg 90%
    15:00 -8°C° 0.2 mm 7 mps 740 mmHg 93%
    16:00 -8°C° 0.2 mm 6 mps 739 mmHg 93%
    17:00 -6°C° 0.2 mm 6 mps 739 mmHg 94%
    18:00 -6°C° 0.2 mm 6 mps 738 mmHg 94%
    19:00 -5°C° 0.3 mm 6 mps 738 mmHg 94%
    20:00 -4°C° 0.3 mm 6 mps 737 mmHg 94%
    21:00 -3°C° 0.3 mm 6 mps 737 mmHg 94%
    22:00 -4°C° 0 mm 6 mps 737 mmHg 91%
    23:00 -4°C° 0 mm 6 mps 737 mmHg 88%

    25 January, Saturday

    Time Temperature Precipitation Wind Pressure Humidity
    00:00 -4°C° 0 mm 6 mps 738 mmHg 86%
    01:00 -5°C° 0 mm 6 mps 738 mmHg 85%
    02:00 -5°C° 0 mm 6 mps 739 mmHg 85%
    03:00 -6°C° 0 mm 6 mps 739 mmHg 85%
    04:00 -6°C° 0 mm 5 mps 740 mmHg 85%
    05:00 -6°C° 0 mm 5 mps 740 mmHg 85%
    06:00 -6°C° 0 mm 5 mps 740 mmHg 85%
    07:00 -7°C° 0 mm 5 mps 741 mmHg 86%
    08:00 -7°C° 0 mm 5 mps 741 mmHg 86%
    09:00 -7°C° 0 mm 5 mps 742 mmHg 87%
    10:00 -6°C° 0 mm 5 mps 742 mmHg 86%
    11:00 -6°C° 0 mm 5 mps 743 mmHg 85%
    12:00 -5°C° 0 mm 5 mps 743 mmHg 84%
    13:00 -4°C° 0 mm 4 mps 744 mmHg 84%
    14:00 -4°C° 0 mm 4 mps 744 mmHg 85%
    15:00 -4°C° 0 mm 4 mps 744 mmHg 85%
    16:00 -4°C° 0 mm 4 mps 744 mmHg 88%
    17:00 -5°C° 0 mm 4 mps 744 mmHg 90%
    18:00 -5°C° 0 mm 4 mps 745 mmHg 93%
    19:00 -4°C° 0 mm 4 mps 745 mmHg 93%
    20:00 -3°C° 0 mm 4 mps 745 mmHg 92%
    21:00 -2°C° 0 mm 4 mps 745 mmHg 92%
    22:00 -2°C° 0 mm 4 mps 745 mmHg 93%
    23:00 -2°C° 0 mm 4 mps 745 mmHg 93%
    Show more